Fort Leonard Wood, MO

7:37 PM CST on December 14, 2017 (GMT -0600)
Waynesville Regional At Forney Field

Weather History for KTBN - July, 2013

Change the Weather History Date:

Wednesday, July 10, 2013

  Actual Average Record
Temperature  
Mean Temperature 78 °F -  
Max Temperature 88 °F 84 °F 97 °F (2011)
Min Temperature 69 °F 68 °F 35 °F (2001)
Cooling Degree Days 14    
Growing Degree Days 28 (Base 50)    
Moisture  
Dew Point 73 °F    
Average Humidity 89    
Maximum Humidity 100    
Minimum Humidity 65    
Precipitation  
Precipitation 0.50 in - - ()
Sea Level Pressure  
Sea Level Pressure 30.00 in    
Wind  
Wind Speed 5 mph (West)    
Max Wind Speed 10 mph    
Max Gust Speed 21 mph    
Visibility 9 miles    
Events Fog , Rain , Thunderstorm    
Averages and records for this station are not official NWS values.
T = Trace of Precipitation, MM = Missing Value Source: NWS Daily Summary

Daily Weather History Graph

Daily Weather History Graph

Search for Another Location

Airport or City:

Trip Planner

Search our weather history database for the weather conditions in past years. The results will help you decide how hot, cold, wet, or windy it might be!

Date:

Astronomy

Jul. 10, 2013 Rise Set
Actual Time 5:55 AM CDT 8:32 PM CDT
Civil Twilight 5:24 AM CDT 9:02 PM CDT
Nautical Twilight 4:46 AM CDT 9:40 PM CDT
Astronomical Twilight 4:03 AM CDT 10:23 PM CDT
Moon 8:13 AM CDT (7/10) 9:46 PM CDT (7/10)
Length of Visible Light 15h 37m
Length of Day
14h 36m
Waxing Crescent, 5% of the Moon is Illuminated
Jul 10
Waxing Crescent
Jul 15
First Quarter
Jul 22
Full
Jul 29
Last Quarter
Aug 6
New

Hourly Weather History & Observations

Time (CDT) Temp. Heat Index Dew Point Humidity Pressure Visibility Wind Dir Wind Speed Gust Speed Precip Events Conditions
12:58 AM 79.5 °F - 71.4 °F 76% 29.97 in 10.0 mi SSW 4.6 mph - N/A   Mostly Cloudy
1:58 AM 78.4 °F - 70.9 °F 77% 29.95 in 10.0 mi SSW 4.6 mph - N/A   Scattered Clouds
2:58 AM 77.2 °F - 70.7 °F 80% 29.94 in 10.0 mi SSW 4.6 mph - N/A   Partly Cloudy
3:58 AM 77.9 °F - 70.0 °F 76% 29.94 in 10.0 mi SW 4.6 mph - N/A   Clear
4:46 AM 78.8 °F - 71.6 °F 78% 30.03 in 10.0 mi WNW 6.9 mph 20.7 mph N/A Rain , Thunderstorm Light Thunderstorms and Rain
4:51 AM 77.0 °F - 73.4 °F 89% 30.04 in 2.0 mi WNW 5.8 mph 20.7 mph N/A Rain , Thunderstorm Heavy Thunderstorms and Rain
4:56 AM 75.2 °F - 73.4 °F 94% 30.04 in 0.5 mi Variable 1.2 mph - N/A Fog , Rain , Thunderstorm Heavy Thunderstorms and Rain
4:58 AM 75.2 °F - 73.4 °F 94% 30.01 in 0.5 mi North 2.3 mph - 0.25 in Fog , Rain , Thunderstorm Heavy Thunderstorms and Rain
5:08 AM 73.4 °F - 73.4 °F 100% 30.02 in 4.0 mi NE 2.3 mph - N/A Rain , Thunderstorm Light Thunderstorms and Rain
5:15 AM 73.4 °F - 73.4 °F 100% 30.03 in 10.0 mi ENE 2.3 mph - N/A Rain , Thunderstorm Light Rain
5:58 AM 73.2 °F - 73.2 °F 100% 29.99 in 8.0 mi WNW 8.1 mph - 0.13 in Rain Light Rain
6:23 AM 73.4 °F - 73.4 °F 100% 30.01 in 8.0 mi West 6.9 mph 16.1 mph N/A Rain , Thunderstorm Thunderstorms and Rain
6:44 AM 73.4 °F - 71.6 °F 94% 30.00 in 6.0 mi West 10.4 mph - N/A Rain Light Rain
6:58 AM 72.9 °F - 70.2 °F 91% 29.99 in 9.0 mi WNW 9.2 mph - 0.09 in Rain Light Rain
7:58 AM 71.8 °F - 71.8 °F 100% 29.99 in 10.0 mi South 8.1 mph - 0.03 in   Light Drizzle
7:59 AM 71.6 °F - 71.6 °F 100% 30.01 in 10.0 mi South 8.1 mph - N/A   Overcast
8:58 AM 73.6 °F - 73.6 °F 100% 30.00 in 10.0 mi ESE 3.5 mph - 0.00 in   Mostly Cloudy
9:58 AM 74.8 °F - 74.8 °F 100% 30.00 in 10.0 mi NW 1.2 mph - N/A   Mostly Cloudy
10:43 AM 75.2 °F - 75.2 °F 100% 30.03 in 10.0 mi South 3.5 mph - N/A   Overcast
10:48 AM 75.2 °F - 75.2 °F 100% 30.03 in 10.0 mi ESE 3.5 mph - N/A   Overcast
10:58 AM 75.0 °F - 75.0 °F 100% 30.01 in 10.0 mi ENE 5.8 mph - N/A   Overcast
11:58 AM 75.7 °F - 75.2 °F 98% 30.01 in 10.0 mi South 5.8 mph - N/A   Overcast
12:03 PM 77.0 °F - 75.2 °F 94% 30.04 in 10.0 mi South 5.8 mph - N/A   Overcast
12:18 PM 78.8 °F - 75.2 °F 89% 30.03 in 10.0 mi South 5.8 mph - N/A   Overcast
12:28 PM 78.8 °F - 75.2 °F 89% 30.03 in 10.0 mi Variable 6.9 mph - N/A   Overcast
12:33 PM 78.8 °F - 75.2 °F 89% 30.03 in 10.0 mi Variable 5.8 mph - N/A   Overcast
12:38 PM 78.8 °F - 75.2 °F 89% 30.02 in 10.0 mi Variable 6.9 mph - N/A   Overcast
12:43 PM 78.8 °F - 75.2 °F 89% 30.03 in 10.0 mi Variable 6.9 mph - N/A   Mostly Cloudy
12:58 PM 80.4 °F 85.5 °F 74.5 °F 82% 29.99 in 10.0 mi WSW 5.8 mph - N/A   Overcast
1:58 PM 85.1 °F 92.6 °F 73.9 °F 69% 29.98 in 10.0 mi Variable 4.6 mph - N/A   Mostly Cloudy
2:58 PM 85.5 °F 91.8 °F 72.5 °F 65% 29.98 in 10.0 mi West 6.9 mph - N/A   Scattered Clouds
3:58 PM 87.3 °F 97.7 °F 75.9 °F 69% 29.96 in 10.0 mi Variable 3.5 mph - N/A   Clear
4:58 PM 88.0 °F 100.2 °F 77.2 °F 70% 29.94 in 10.0 mi Variable 5.8 mph - N/A   Partly Cloudy
5:58 PM 82.9 °F 90.8 °F 75.9 °F 79% 29.94 in 10.0 mi NNW 9.2 mph - N/A   Partly Cloudy
6:58 PM 82.9 °F 87.2 °F 70.5 °F 66% 29.94 in 10.0 mi North 3.5 mph - N/A   Mostly Cloudy
7:58 PM 81.1 °F 86.6 °F 73.9 °F 79% 29.96 in 10.0 mi North 2.3 mph - N/A   Clear
8:58 PM 77.9 °F - 74.8 °F 90% 29.96 in 10.0 mi North 2.3 mph - N/A   Clear
9:58 PM 77.5 °F - 73.6 °F 88% 29.98 in 10.0 mi North 4.6 mph - N/A   Clear
10:58 PM 72.1 °F - 72.1 °F 100% 29.99 in 8.0 mi Calm Calm - N/A   Clear
11:28 PM 71.6 °F - 71.6 °F 100% 30.02 in 2.5 mi NW 1.2 mph - N/A   Clear
11:33 PM 69.8 °F - 69.8 °F 100% 30.02 in 6.0 mi Calm Calm - N/A   Clear
11:58 PM 71.8 °F - 71.8 °F 100% 30.00 in 6.0 mi Calm Calm - N/A   Clear